Airfield :







YOU CAN JOIN US ON...

 
LOGIN :

Register | Disclaimer

   EN    FR    IT 

 









Legend :    VFR   Marginal VFR   IFR   Intensive IFR   Very Intensive IFR
Visi :
Ceiling :
>= 8 km
>= 3000ft
5 to 8 km
1000 to 3000 ft
1500m to 5 km
500 to 1000 ft
800 to 1500m
200 to 500 ft
< 800m
< 200 ft
Symbols :   Thunderstorms  Fog  Heavy snow  Heavy precipitations  Wind > 20 kt







- Airport Elevation : 357 ft
- IATA code : YSJ


CYSJ - Saint John

CURRENT METAR :
  • 160806Z 18007KT 15SM -RA OVC081 11/10 A2982 RMK AC8 SLP099

EXPIRED METARs :
  • 160700Z 19010KT 15SM OVC095 12/10 A2983 RMK AC8 SLP102

TAF TAF CYSJ
Valid from the 16 at 06:00 until the 16 at 18:00 UTC


160538Z 1606/1618 19008KT P6SM BKN160
TEMPO 1606/1612 5SM -SHRA BR BKN020 OVC050
FM161200 20012KT P6SM FEW020 SCT120 RMK NXT FCST BY 161200Z
CZQM FIR / North America



MET'MAP, your aeronautical weather chart ! - Copyright ORBIFLY December 2007 - Disclaimer

ORBIFLY MET'MAP TEAM :

Programming & Development : Alexandra Zaïnal
Concept & Development : Baudouin d'Aumeries
Co-Development & Prog : Marc-Olivier Méhu
Technical & hardware support : Manuel Goepfert

Contact : metmap@orbifly.com




SOURCES & CREDITS :

   NOAA